Flag for U.S.A. Weather past 2 weeks in Palestine, Texas, U.S.A.

Now
78 °F

Clear.


Feels Like: 81 °F
Forecast: 72 / 93 °F
Wind: 3 mph from East

Location: Cherokee County Airport

Current Time: Jul 24, 2014 at 10:50:58 PM

Latest Report: Jul 24, 2014 at 10:15 PM


Visibility: 10 mi

Pressure: 30.03 "Hg

Humidity: 80%

Dew point: 72 °F

Location of PalestineLocation

Historic Weather in Palestine — Graph

°F

Palestine temperature yesterday

Maximum temperature yesterday: 90 °F (at 3:35 PM)
Minimum temperature yesterday: 70 °F (at 11:35 PM)
Average temperature yesterday: 82 °F

Past Weeks' High & Low Weather Summary

 TemperatureHumidityPressure
High95 °F (Jul 13, 3:15 PM)98% (Jul 20, 8:55 AM)30.21 "Hg (Jul 20, 8:55 AM)
Low65 °F (Jul 20, 6:55 AM)37% (Jul 13, 5:35 PM)29.90 "Hg (Jul 17, 6:35 PM)
Average79 °F74%30.05 "Hg
* Reported Jul 9 9:15 PM — Jul 24 9:15 PM, Palestine, Weather by CustomWeather, © 2014

Note: Actual official high and low records may vary slightly from our data, if they occured in-between our weather recording intervals... More about our weather records

Advertising

Palestine weather history for previous 24 hours

 ConditionsComfort  
Time TempWeatherWind HumidityBarometerVisibility
9:15 PM
Jul 24
80 °FSunny.No wind74%30.01 "Hg10 mi
8:55 PM81 °FSunny.No wind71%30.01 "Hg10 mi
8:35 PM82 °FSunny.No wind69%30.00 "Hg10 mi
8:15 PM84 °FSunny.No wind62%30.00 "Hg10 mi
7:55 PM85 °FSunny.No wind60%29.99 "Hg10 mi
7:15 PM87 °FSunny.No wind50%29.99 "Hg10 mi
6:55 PM87 °FSunny.3 mph51%29.99 "Hg10 mi
6:35 PM87 °FSunny.No wind52%30.00 "Hg10 mi
6:15 PM88 °FSunny.5 mph52%30.00 "Hg10 mi
5:55 PM89 °FSunny.3 mph50%30.01 "Hg10 mi
5:35 PM89 °FSunny.3 mph47%30.01 "Hg10 mi
5:15 PM89 °FSunny.No wind45%30.02 "Hg10 mi
4:55 PM88 °FSunny.No wind45%30.02 "Hg10 mi
4:35 PM88 °FSunny.No wind46%30.03 "Hg10 mi
4:15 PM88 °FSunny.5 mph49%30.03 "Hg10 mi
3:55 PM89 °FSunny.5 mph50%30.03 "Hg10 mi
3:35 PM88 °FSunny.5 mph51%30.04 "Hg10 mi
3:15 PM87 °FSunny.No wind52%30.05 "Hg10 mi
2:55 PM87 °FSunny.5 mph53%30.05 "Hg10 mi
2:35 PM87 °FSunny.6 mph53%30.05 "Hg10 mi
2:15 PM86 °FSunny.6 mph55%30.06 "Hg10 mi
1:55 PM86 °FSunny.No wind55%30.06 "Hg10 mi
1:35 PM85 °FSunny.3 mph55%30.06 "Hg10 mi
1:15 PM85 °FSunny.No wind57%30.07 "Hg10 mi
12:55 PM84 °FSunny.No wind58%30.07 "Hg10 mi
12:35 PM83 °FSunny.No wind56%30.08 "Hg10 mi
12:15 PM83 °FSunny.5 mph58%30.08 "Hg10 mi
11:55 AM82 °FSunny.No wind58%30.09 "Hg10 mi
11:35 AM82 °FSunny.3 mph61%30.09 "Hg10 mi
11:15 AM82 °FSunny.3 mph64%30.08 "Hg10 mi
10:55 AM81 °FSunny.3 mph65%30.09 "Hg10 mi
10:35 AM80 °FSunny.3 mph70%30.08 "Hg10 mi
10:15 AM79 °FSunny.No wind66%30.08 "Hg10 mi
9:55 AM77 °FSunny.No wind78%30.09 "Hg10 mi
8:35 AM73 °FSunny.No wind87%30.10 "Hg10 mi
8:15 AM72 °FSunny.5 mph91%30.10 "Hg10 mi
7:55 AM71 °FSunny.3 mph93%30.09 "Hg10 mi
7:35 AM70 °FSunny.3 mph93%30.09 "Hg10 mi
6:55 AM69 °FClear.No wind95%30.08 "Hg10 mi
6:35 AM69 °FClear.3 mph96%30.08 "Hg10 mi
6:15 AM69 °FClear.3 mph96%30.08 "Hg10 mi
5:55 AM69 °FClear.No wind96%30.07 "Hg10 mi
5:35 AM68 °FClear.3 mph96%30.06 "Hg10 mi
5:15 AM68 °FClear.No wind96%30.06 "Hg7 mi
4:55 AM68 °FClear.3 mph96%30.06 "Hg10 mi
4:35 AM68 °FClear.No wind96%30.05 "Hg10 mi
4:15 AM68 °FClear.No wind96%30.04 "Hg7 mi
3:55 AM69 °FClear.No wind96%30.05 "Hg10 mi
3:35 AM69 °FClear.No wind97%30.05 "Hg10 mi
3:15 AM69 °FFog.No wind97%30.05 "Hg3 mi
2:55 AM68 °FFog.No wind97%30.03 "Hg1 mi
2:35 AM69 °FFog.5 mph96%30.03 "Hg1 mi
2:15 AM69 °FFog.5 mph95%30.04 "Hg5 mi
1:55 AM69 °FClear.No wind96%30.03 "Hg10 mi
1:35 AM69 °FClear.No wind95%30.02 "Hg10 mi
1:15 AM69 °FClear.5 mph95%30.03 "Hg10 mi
12:35 AM70 °FClear.No wind94%30.02 "Hg10 mi
12:15 AM69 °FClear.No wind94%30.01 "Hg10 mi
11:55 PM
Jul 23
70 °FClear.No wind93%29.99 "Hg10 mi
11:35 PM70 °FClear.3 mph94%29.98 "Hg10 mi
11:15 PM71 °FClear.5 mph92%29.98 "Hg10 mi
10:55 PM70 °FClear.3 mph93%29.98 "Hg10 mi
10:35 PM70 °FClear.5 mph93%30.03 "Hg10 mi
Weather by CustomWeather, © 2014

See weather overviewHow to use our weather pages